Year,Month,Day,Hour,Minute,Value (Times are PST for temperature in C)
2011,04,19,00,00,6.70
2011,04,19,00,01,6.70
2011,04,19,00,02,6.70
2011,04,19,00,03,6.70
2011,04,19,00,04,6.70
2011,04,19,00,05,6.70
2011,04,19,00,06,6.70
2011,04,19,00,07,6.70
2011,04,19,00,08,6.70
2011,04,19,00,09,6.70
2011,04,19,00,10,6.70
2011,04,19,00,11,6.70
2011,04,19,00,12,6.70
2011,04,19,00,13,6.70
2011,04,19,00,14,6.70
2011,04,19,00,15,6.70
2011,04,19,00,16,6.70
2011,04,19,00,17,6.70
2011,04,19,00,18,6.60
2011,04,19,00,19,6.60
2011,04,19,00,20,6.60
2011,04,19,00,21,6.60
2011,04,19,00,22,6.60
2011,04,19,00,23,6.50
2011,04,19,00,24,6.50
2011,04,19,00,25,6.50
2011,04,19,00,26,6.60
2011,04,19,00,27,6.60
2011,04,19,00,28,6.60
2011,04,19,00,29,6.60
2011,04,19,00,30,6.60
2011,04,19,00,31,6.60
2011,04,19,00,32,6.60
2011,04,19,00,33,6.60
2011,04,19,00,34,6.60
2011,04,19,00,35,6.60
2011,04,19,00,36,6.60
2011,04,19,00,37,6.60
2011,04,19,00,38,6.60
2011,04,19,00,39,6.60
2011,04,19,00,40,6.60
2011,04,19,00,41,6.60
2011,04,19,00,42,6.50
2011,04,19,00,43,6.50
2011,04,19,00,44,6.50
2011,04,19,00,45,6.50
2011,04,19,00,46,6.50
2011,04,19,00,47,6.50
2011,04,19,00,48,6.50
2011,04,19,00,49,6.50
2011,04,19,00,50,6.50
2011,04,19,00,51,6.50
2011,04,19,00,52,6.50
2011,04,19,00,53,6.50
2011,04,19,00,54,6.50
2011,04,19,00,55,6.50
2011,04,19,00,56,6.50
2011,04,19,00,57,6.50
2011,04,19,00,58,6.50
2011,04,19,00,59,6.40
2011,04,19,01,00,6.40
2011,04,19,01,01,6.40
2011,04,19,01,02,6.40
2011,04,19,01,03,6.40
2011,04,19,01,04,6.40
2011,04,19,01,05,6.50
2011,04,19,01,06,6.50
2011,04,19,01,07,6.50
2011,04,19,01,08,6.50
2011,04,19,01,09,6.50
2011,04,19,01,10,6.40
2011,04,19,01,11,6.40
2011,04,19,01,12,6.40
2011,04,19,01,13,6.40
2011,04,19,01,14,6.40
2011,04,19,01,15,6.40
2011,04,19,01,16,6.40
2011,04,19,01,17,6.40
2011,04,19,01,18,6.40
2011,04,19,01,19,6.40
2011,04,19,01,20,6.40
2011,04,19,01,21,6.40
2011,04,19,01,22,6.50
2011,04,19,01,23,6.50
2011,04,19,01,24,6.50
2011,04,19,01,25,6.50
2011,04,19,01,26,6.40
2011,04,19,01,27,6.40
2011,04,19,01,28,6.40
2011,04,19,01,29,6.40
2011,04,19,01,30,6.40
2011,04,19,01,31,6.40
2011,04,19,01,32,6.40
2011,04,19,01,33,6.30
2011,04,19,01,34,6.30
2011,04,19,01,35,6.30
2011,04,19,01,36,6.30
2011,04,19,01,37,6.30
2011,04,19,01,38,6.40
2011,04,19,01,39,6.40
2011,04,19,01,40,6.40
2011,04,19,01,41,6.40
2011,04,19,01,42,6.40
2011,04,19,01,43,6.40
2011,04,19,01,44,6.40
2011,04,19,01,45,6.40
2011,04,19,01,46,6.40
2011,04,19,01,47,6.40
2011,04,19,01,48,6.40
2011,04,19,01,49,6.30
2011,04,19,01,50,6.30
2011,04,19,01,51,6.30
2011,04,19,01,52,6.30
2011,04,19,01,53,6.30
2011,04,19,01,54,6.30
2011,04,19,01,55,6.30
2011,04,19,01,56,6.30
2011,04,19,01,57,6.30
2011,04,19,01,58,6.30
2011,04,19,01,59,6.40
2011,04,19,02,00,6.40
2011,04,19,02,01,6.40
2011,04,19,02,02,6.40
2011,04,19,02,03,6.30
2011,04,19,02,04,6.30
2011,04,19,02,05,6.30
2011,04,19,02,06,6.20
2011,04,19,02,07,6.20
2011,04,19,02,08,6.20
2011,04,19,02,09,6.20
2011,04,19,02,10,6.20
2011,04,19,02,11,6.20
2011,04,19,02,12,6.30
2011,04,19,02,13,6.30
2011,04,19,02,14,6.30
2011,04,19,02,15,6.30
2011,04,19,02,16,6.30
2011,04,19,02,17,6.20
2011,04,19,02,18,6.20
2011,04,19,02,19,6.20
2011,04,19,02,20,6.20
2011,04,19,02,21,6.20
2011,04,19,02,22,6.20
2011,04,19,02,23,6.20
2011,04,19,02,24,6.20
2011,04,19,02,25,6.20
2011,04,19,02,26,6.20
2011,04,19,02,27,6.20
2011,04,19,02,28,6.20
2011,04,19,02,29,6.20
2011,04,19,02,30,6.10
2011,04,19,02,31,6.10
2011,04,19,02,32,6.10
2011,04,19,02,33,6.10
2011,04,19,02,34,6.10
2011,04,19,02,35,6.10
2011,04,19,02,36,6.00
2011,04,19,02,37,6.00
2011,04,19,02,38,6.00
2011,04,19,02,39,6.00
2011,04,19,02,40,5.90
2011,04,19,02,41,5.90
2011,04,19,02,42,5.90
2011,04,19,02,43,5.90
2011,04,19,02,44,5.90
2011,04,19,02,45,5.80
2011,04,19,02,46,5.80
2011,04,19,02,47,5.80
2011,04,19,02,48,5.80
2011,04,19,02,49,5.70
2011,04,19,02,50,5.70
2011,04,19,02,51,5.70
2011,04,19,02,52,5.60
2011,04,19,02,53,5.60
2011,04,19,02,54,5.50
2011,04,19,02,55,5.50
2011,04,19,02,56,5.40
2011,04,19,02,57,5.40
2011,04,19,02,58,5.40
2011,04,19,02,59,5.30
2011,04,19,03,00,5.30
2011,04,19,03,01,5.20
2011,04,19,03,02,5.20
2011,04,19,03,03,5.20
2011,04,19,03,04,5.20
2011,04,19,03,05,5.20
2011,04,19,03,06,5.20
2011,04,19,03,07,5.10
2011,04,19,03,08,5.10
2011,04,19,03,09,5.10
2011,04,19,03,10,5.10
2011,04,19,03,11,5.00
2011,04,19,03,12,5.00
2011,04,19,03,13,5.00
2011,04,19,03,14,4.90
2011,04,19,03,15,4.90
2011,04,19,03,16,4.80
2011,04,19,03,17,4.80
2011,04,19,03,18,4.80
2011,04,19,03,19,4.80
2011,04,19,03,20,4.70
2011,04,19,03,21,4.70
2011,04,19,03,22,4.70
2011,04,19,03,23,4.60
2011,04,19,03,24,4.60
2011,04,19,03,25,4.50
2011,04,19,03,26,4.50
2011,04,19,03,27,4.40
2011,04,19,03,28,4.40
2011,04,19,03,29,4.40
2011,04,19,03,30,4.30
2011,04,19,03,31,4.30
2011,04,19,03,32,4.30
2011,04,19,03,33,4.20
2011,04,19,03,34,4.20
2011,04,19,03,35,4.20
2011,04,19,03,36,4.10
2011,04,19,03,37,4.10
2011,04,19,03,38,4.10
2011,04,19,03,39,4.00
2011,04,19,03,40,4.00
2011,04,19,03,41,3.90
2011,04,19,03,42,3.90
2011,04,19,03,43,3.90
2011,04,19,03,44,3.90
2011,04,19,03,45,3.80
2011,04,19,03,46,3.80
2011,04,19,03,47,3.80
2011,04,19,03,48,3.80
2011,04,19,03,49,3.80
2011,04,19,03,50,3.70
2011,04,19,03,51,3.70
2011,04,19,03,52,3.70
2011,04,19,03,53,3.70
2011,04,19,03,54,3.60
2011,04,19,03,55,3.60
2011,04,19,03,56,3.60
2011,04,19,03,57,3.60
2011,04,19,03,58,3.60
2011,04,19,03,59,3.60
2011,04,19,04,00,3.60
2011,04,19,04,01,3.60
2011,04,19,04,02,3.70
2011,04,19,04,03,3.70
2011,04,19,04,04,3.70
2011,04,19,04,05,3.70
2011,04,19,04,06,3.70
2011,04,19,04,07,3.70
2011,04,19,04,08,3.70
2011,04,19,04,09,3.70
2011,04,19,04,10,3.70
2011,04,19,04,11,3.70
2011,04,19,04,12,3.70
2011,04,19,04,13,3.70
2011,04,19,04,14,3.70
2011,04,19,04,15,3.70
2011,04,19,04,16,3.70
2011,04,19,04,17,3.60
2011,04,19,04,18,3.60
2011,04,19,04,19,3.60
2011,04,19,04,20,3.60
2011,04,19,04,21,3.60
2011,04,19,04,22,3.60
2011,04,19,04,23,3.50
2011,04,19,04,24,3.50
2011,04,19,04,25,3.40
2011,04,19,04,26,3.40
2011,04,19,04,27,3.30
2011,04,19,04,28,3.30
2011,04,19,04,29,3.30
2011,04,19,04,30,3.30
2011,04,19,04,31,3.20
2011,04,19,04,32,3.20
2011,04,19,04,33,3.20
2011,04,19,04,34,3.20
2011,04,19,04,35,3.10
2011,04,19,04,36,3.10
2011,04,19,04,37,3.10
2011,04,19,04,38,3.10
2011,04,19,04,39,3.10
2011,04,19,04,40,3.00
2011,04,19,04,41,3.00
2011,04,19,04,42,3.00
2011,04,19,04,43,3.00
2011,04,19,04,44,2.90
2011,04,19,04,45,2.90
2011,04,19,04,46,2.90
2011,04,19,04,47,2.90
2011,04,19,04,48,2.90
2011,04,19,04,49,2.90
2011,04,19,04,50,2.80
2011,04,19,04,51,2.80
2011,04,19,04,52,2.80
2011,04,19,04,53,2.80
2011,04,19,04,54,2.80
2011,04,19,04,55,2.70
2011,04,19,04,56,2.70
2011,04,19,04,57,2.70
2011,04,19,04,58,2.70
2011,04,19,04,59,2.70
2011,04,19,05,00,2.60
2011,04,19,05,01,2.60
2011,04,19,05,02,2.60
2011,04,19,05,03,2.60
2011,04,19,05,04,2.60
2011,04,19,05,05,2.60
2011,04,19,05,06,2.60
2011,04,19,05,07,2.60
2011,04,19,05,08,2.60
2011,04,19,05,09,2.60
2011,04,19,05,10,2.60
2011,04,19,05,11,2.60
2011,04,19,05,12,2.60
2011,04,19,05,13,2.60
2011,04,19,05,14,2.60
2011,04,19,05,15,2.60
2011,04,19,05,16,2.50
2011,04,19,05,17,2.50
2011,04,19,05,18,2.50
2011,04,19,05,19,2.50
2011,04,19,05,20,2.60
2011,04,19,05,21,2.60
2011,04,19,05,22,2.60
2011,04,19,05,23,2.60
2011,04,19,05,24,2.60
2011,04,19,05,25,2.60
2011,04,19,05,26,2.60
2011,04,19,05,27,2.60
2011,04,19,05,28,2.60
2011,04,19,05,29,2.60
2011,04,19,05,30,2.60
2011,04,19,05,31,2.60
2011,04,19,05,32,2.60
2011,04,19,05,33,2.60
2011,04,19,05,34,2.70
2011,04,19,05,35,2.70
2011,04,19,05,36,2.70
2011,04,19,05,37,2.70
2011,04,19,05,38,2.70
2011,04,19,05,39,2.70
2011,04,19,05,40,2.80
2011,04,19,05,41,2.90
2011,04,19,05,42,3.00
2011,04,19,05,43,3.10
2011,04,19,05,44,3.30
2011,04,19,05,45,3.40
2011,04,19,05,46,3.60
2011,04,19,05,47,3.80
2011,04,19,05,48,3.90
2011,04,19,05,49,4.00
2011,04,19,05,50,4.00
2011,04,19,05,51,4.10
2011,04,19,05,52,4.20
2011,04,19,05,53,4.20
2011,04,19,05,54,4.20
2011,04,19,05,55,4.30
2011,04,19,05,56,4.30
2011,04,19,05,57,4.40
2011,04,19,05,58,4.40
2011,04,19,05,59,4.50
2011,04,19,06,00,4.50
2011,04,19,06,01,4.50
2011,04,19,06,02,4.50
2011,04,19,06,03,4.50
2011,04,19,06,04,4.40
2011,04,19,06,05,4.40
2011,04,19,06,06,4.40
2011,04,19,06,07,4.30
2011,04,19,06,08,4.30
2011,04,19,06,09,4.30
2011,04,19,06,10,4.20
2011,04,19,06,11,4.20
2011,04,19,06,12,4.20
2011,04,19,06,13,4.10
2011,04,19,06,14,4.10
2011,04,19,06,15,4.00
2011,04,19,06,16,4.00
2011,04,19,06,17,4.00
2011,04,19,06,18,4.00
2011,04,19,06,19,4.00
2011,04,19,06,20,4.10
2011,04,19,06,21,4.10
2011,04,19,06,22,4.10
2011,04,19,06,23,4.10
2011,04,19,06,24,4.10
2011,04,19,06,25,4.10
2011,04,19,06,26,4.10
2011,04,19,06,27,4.00
2011,04,19,06,28,4.00
2011,04,19,06,29,4.00
2011,04,19,06,30,4.10
2011,04,19,06,31,4.10
2011,04,19,06,32,4.10
2011,04,19,06,33,4.20
2011,04,19,06,34,4.30
2011,04,19,06,35,4.30
2011,04,19,06,36,4.30
2011,04,19,06,37,4.40
2011,04,19,06,38,4.40
2011,04,19,06,39,4.40
2011,04,19,06,40,4.50
2011,04,19,06,41,4.60
2011,04,19,06,42,4.60
2011,04,19,06,43,4.70
2011,04,19,06,44,4.70
2011,04,19,06,45,4.80
2011,04,19,06,46,4.80
2011,04,19,06,47,4.80
2011,04,19,06,48,4.90
2011,04,19,06,49,4.90
2011,04,19,06,50,5.00
2011,04,19,06,51,5.00
2011,04,19,06,52,5.00
2011,04,19,06,53,5.00
2011,04,19,06,54,5.10
2011,04,19,06,55,5.10
2011,04,19,06,56,5.00
2011,04,19,06,57,5.00
2011,04,19,06,58,5.00
2011,04,19,06,59,5.00
2011,04,19,07,00,5.10
2011,04,19,07,01,5.10
2011,04,19,07,02,5.10
2011,04,19,07,03,5.10
2011,04,19,07,04,5.10
2011,04,19,07,05,5.10
2011,04,19,07,06,5.10
2011,04,19,07,07,5.10
2011,04,19,07,08,5.20
2011,04,19,07,09,5.20
2011,04,19,07,10,5.20
2011,04,19,07,11,5.20
2011,04,19,07,12,5.30
2011,04,19,07,13,5.30
2011,04,19,07,14,5.30
2011,04,19,07,15,5.40
2011,04,19,07,16,5.40
2011,04,19,07,17,5.40
2011,04,19,07,18,5.50
2011,04,19,07,19,5.50
2011,04,19,07,20,5.50
2011,04,19,07,21,5.60
2011,04,19,07,22,5.60
2011,04,19,07,23,5.60
2011,04,19,07,24,5.60
2011,04,19,07,25,5.60
2011,04,19,07,26,5.70
2011,04,19,07,27,5.70
2011,04,19,07,28,5.70
2011,04,19,07,29,5.70
2011,04,19,07,30,5.70
2011,04,19,07,31,5.70
2011,04,19,07,32,5.80
2011,04,19,07,33,5.80
2011,04,19,07,34,5.80
2011,04,19,07,35,5.80
2011,04,19,07,36,5.80
2011,04,19,07,37,5.90
2011,04,19,07,38,5.90
2011,04,19,07,39,5.90
2011,04,19,07,40,6.00
2011,04,19,07,41,6.00
2011,04,19,07,42,6.00
2011,04,19,07,43,6.10
2011,04,19,07,44,6.10
2011,04,19,07,45,6.20
2011,04,19,07,46,6.20
2011,04,19,07,47,6.20
2011,04,19,07,48,6.20
2011,04,19,07,49,6.30
2011,04,19,07,50,6.30
2011,04,19,07,51,6.30
2011,04,19,07,52,6.30
2011,04,19,07,53,6.40
2011,04,19,07,54,6.40
2011,04,19,07,55,6.40
2011,04,19,07,56,6.40
2011,04,19,07,57,6.40
2011,04,19,07,58,6.40
2011,04,19,07,59,6.40
2011,04,19,08,00,6.40
2011,04,19,08,01,6.40
2011,04,19,08,02,6.50
2011,04,19,08,03,6.50
2011,04,19,08,04,6.50
2011,04,19,08,05,6.60
2011,04,19,08,06,6.60
2011,04,19,08,07,6.60
2011,04,19,08,08,6.70
2011,04,19,08,09,6.70
2011,04,19,08,10,6.70
2011,04,19,08,11,6.70
2011,04,19,08,12,6.70
2011,04,19,08,13,6.80
2011,04,19,08,14,6.80
2011,04,19,08,15,6.80
2011,04,19,08,16,6.80
2011,04,19,08,17,6.90
2011,04,19,08,18,6.90
2011,04,19,08,19,6.90
2011,04,19,08,20,7.00
2011,04,19,08,21,7.00
2011,04,19,08,22,7.10
2011,04,19,08,23,7.10
2011,04,19,08,24,7.10
2011,04,19,08,25,7.10
2011,04,19,08,26,7.10
2011,04,19,08,27,7.10
2011,04,19,08,28,7.20
2011,04,19,08,29,7.20
2011,04,19,08,30,7.20
2011,04,19,08,31,7.20
2011,04,19,08,32,7.20
2011,04,19,08,33,7.20
2011,04,19,08,34,7.20
2011,04,19,08,35,7.20
2011,04,19,08,36,7.20
2011,04,19,08,37,7.20
2011,04,19,08,38,7.20
2011,04,19,08,39,7.20
2011,04,19,08,40,7.30
2011,04,19,08,41,7.30
2011,04,19,08,42,7.30
2011,04,19,08,43,7.30
2011,04,19,08,44,7.40
2011,04,19,08,45,7.40
2011,04,19,08,46,7.50
2011,04,19,08,47,7.60
2011,04,19,08,48,7.60
2011,04,19,08,49,7.70
2011,04,19,08,50,7.70
2011,04,19,08,51,7.80
2011,04,19,08,52,7.80
2011,04,19,08,53,7.80
2011,04,19,08,54,7.80
2011,04,19,08,55,7.70
2011,04,19,08,56,7.70
2011,04,19,08,57,7.70
2011,04,19,08,58,7.70
2011,04,19,08,59,7.70
2011,04,19,09,00,7.70
2011,04,19,09,01,7.70
2011,04,19,09,02,7.70
2011,04,19,09,03,7.70
2011,04,19,09,04,7.70
2011,04,19,09,05,7.80
2011,04,19,09,06,7.80
2011,04,19,09,07,7.80
2011,04,19,09,08,7.90
2011,04,19,09,09,7.90
2011,04,19,09,10,8.00
2011,04,19,09,11,8.00
2011,04,19,09,12,8.00
2011,04,19,09,13,8.00
2011,04,19,09,14,8.10
2011,04,19,09,15,8.10
2011,04,19,09,16,8.10
2011,04,19,09,17,8.10
2011,04,19,09,18,8.00
2011,04,19,09,19,8.10
2011,04,19,09,20,8.10
2011,04,19,09,21,8.10
2011,04,19,09,22,8.20
2011,04,19,09,23,8.20
2011,04,19,09,24,8.20
2011,04,19,09,25,8.20
2011,04,19,09,26,8.20
2011,04,19,09,27,8.20
2011,04,19,09,28,8.20
2011,04,19,09,29,8.30
2011,04,19,09,30,8.30
2011,04,19,09,31,8.30
2011,04,19,09,32,8.30
2011,04,19,09,33,8.30
2011,04,19,09,34,8.30
2011,04,19,09,35,8.40
2011,04,19,09,36,8.40
2011,04,19,09,37,8.50
2011,04,19,09,38,8.60
2011,04,19,09,39,8.70
2011,04,19,09,40,8.80
2011,04,19,09,41,8.80
2011,04,19,09,42,8.80
2011,04,19,09,43,8.80
2011,04,19,09,44,8.90
2011,04,19,09,45,8.80
2011,04,19,09,46,8.80
2011,04,19,09,47,8.80
2011,04,19,09,48,8.80
2011,04,19,09,49,8.90
2011,04,19,09,50,8.90
2011,04,19,09,51,8.90
2011,04,19,09,52,8.80
2011,04,19,09,53,8.90
2011,04,19,09,54,8.90
2011,04,19,09,55,9.00
2011,04,19,09,56,9.00
2011,04,19,09,57,9.00
2011,04,19,09,58,9.10
2011,04,19,09,59,9.10
2011,04,19,10,00,9.20
2011,04,19,10,01,9.20
2011,04,19,10,02,9.20
2011,04,19,10,03,9.20
2011,04,19,10,04,9.20
2011,04,19,10,05,9.20
2011,04,19,10,06,9.20
2011,04,19,10,07,9.20
2011,04,19,10,08,9.20
2011,04,19,10,09,9.20
2011,04,19,10,10,9.10
2011,04,19,10,11,9.10
2011,04,19,10,12,9.10
2011,04,19,10,13,9.00
2011,04,19,10,14,9.00
2011,04,19,10,15,8.90
2011,04,19,10,16,8.80
2011,04,19,10,17,8.80
2011,04,19,10,18,8.80
2011,04,19,10,19,8.80
2011,04,19,10,20,8.80
2011,04,19,10,21,8.70
2011,04,19,10,22,8.70
2011,04,19,10,23,8.70
2011,04,19,10,24,8.70
2011,04,19,10,25,8.70
2011,04,19,10,26,8.70
2011,04,19,10,27,8.70
2011,04,19,10,28,8.70
2011,04,19,10,29,8.70
2011,04,19,10,30,8.70
2011,04,19,10,31,8.70
2011,04,19,10,32,8.70
2011,04,19,10,33,8.80
2011,04,19,10,34,8.80
2011,04,19,10,35,8.80
2011,04,19,10,36,8.80
2011,04,19,10,37,8.80
2011,04,19,10,38,8.80
2011,04,19,10,39,8.80
2011,04,19,10,40,8.90
2011,04,19,10,41,8.90
2011,04,19,10,42,8.90
2011,04,19,10,43,9.00
2011,04,19,10,44,9.00
2011,04,19,10,45,9.00
2011,04,19,10,46,9.10
2011,04,19,10,47,9.10
2011,04,19,10,48,9.10
2011,04,19,10,49,9.10
2011,04,19,10,50,9.10
2011,04,19,10,51,9.10
2011,04,19,10,52,9.20
2011,04,19,10,53,9.20
2011,04,19,10,54,9.20
2011,04,19,10,55,9.30
2011,04,19,10,56,9.40
2011,04,19,10,57,9.50
2011,04,19,10,58,9.60
2011,04,19,10,59,9.60
2011,04,19,11,00,9.70
2011,04,19,11,01,9.70
2011,04,19,11,02,9.60
2011,04,19,11,03,9.60
2011,04,19,11,04,9.70
2011,04,19,11,05,9.80
2011,04,19,11,06,10.00
2011,04,19,11,07,10.10
2011,04,19,11,08,10.10
2011,04,19,11,09,10.00
2011,04,19,11,10,9.90
2011,04,19,11,11,9.90
2011,04,19,11,12,9.90
2011,04,19,11,13,9.80
2011,04,19,11,14,9.70
2011,04,19,11,15,9.70
2011,04,19,11,16,9.70
2011,04,19,11,17,9.70
2011,04,19,11,18,9.70
2011,04,19,11,19,9.70
2011,04,19,11,20,9.80
2011,04,19,11,21,9.80
2011,04,19,11,22,9.90
2011,04,19,11,23,10.10
2011,04,19,11,24,10.20
2011,04,19,11,25,10.20
2011,04,19,11,26,10.20
2011,04,19,11,27,10.30
2011,04,19,11,28,10.20
2011,04,19,11,29,10.10
2011,04,19,11,30,9.90
2011,04,19,11,31,9.80
2011,04,19,11,32,9.60
2011,04,19,11,33,9.50
2011,04,19,11,34,9.50
2011,04,19,11,35,9.50
2011,04,19,11,36,9.50
2011,04,19,11,37,9.60
2011,04,19,11,38,9.70
2011,04,19,11,39,9.80
2011,04,19,11,40,9.90
2011,04,19,11,41,9.90
2011,04,19,11,42,10.00
2011,04,19,11,43,10.00
2011,04,19,11,44,10.00
2011,04,19,11,45,10.00
2011,04,19,11,46,9.90
2011,04,19,11,47,9.80
2011,04,19,11,48,9.80
2011,04,19,11,49,9.70
2011,04,19,11,50,9.80
2011,04,19,11,51,9.80
2011,04,19,11,52,9.90
2011,04,19,11,53,10.00
2011,04,19,11,54,10.10
2011,04,19,11,55,10.20
2011,04,19,11,56,10.20
2011,04,19,11,57,10.20
2011,04,19,11,58,10.20
2011,04,19,11,59,10.10
2011,04,19,12,00,10.00
2011,04,19,12,01,9.90
2011,04,19,12,02,9.90
2011,04,19,12,03,10.00
2011,04,19,12,04,9.90
2011,04,19,12,05,9.80
2011,04,19,12,06,9.80
2011,04,19,12,07,9.80
2011,04,19,12,08,9.80
2011,04,19,12,09,9.80
2011,04,19,12,10,9.80
2011,04,19,12,11,9.70
2011,04,19,12,12,9.70
2011,04,19,12,13,9.70
2011,04,19,12,14,9.70
2011,04,19,12,15,9.70
2011,04,19,12,16,9.70
2011,04,19,12,17,9.80
2011,04,19,12,18,9.90
2011,04,19,12,19,9.90
2011,04,19,12,20,10.00
2011,04,19,12,21,10.00
2011,04,19,12,22,10.10
2011,04,19,12,23,10.20
2011,04,19,12,24,10.10
2011,04,19,12,25,9.90
2011,04,19,12,26,9.80
2011,04,19,12,27,9.90
2011,04,19,12,28,9.90
2011,04,19,12,29,9.80
2011,04,19,12,30,9.80
2011,04,19,12,31,9.80
2011,04,19,12,32,9.80
2011,04,19,12,33,9.90
2011,04,19,12,34,10.00
2011,04,19,12,35,10.00
2011,04,19,12,36,9.90
2011,04,19,12,37,9.90
2011,04,19,12,38,10.00
2011,04,19,12,39,10.10
2011,04,19,12,40,10.10
2011,04,19,12,41,10.00
2011,04,19,12,42,10.00
2011,04,19,12,43,9.90
2011,04,19,12,44,10.00
2011,04,19,12,45,9.90
2011,04,19,12,46,9.90
2011,04,19,12,47,10.00
2011,04,19,12,48,10.10
2011,04,19,12,49,10.20
2011,04,19,12,50,10.10
2011,04,19,12,51,10.00
2011,04,19,12,52,9.90
2011,04,19,12,53,9.80
2011,04,19,12,54,9.70
2011,04,19,12,55,9.80
2011,04,19,12,56,9.90
2011,04,19,12,57,9.90
2011,04,19,12,58,9.90
2011,04,19,12,59,9.90
2011,04,19,13,00,10.00
2011,04,19,13,01,10.00
2011,04,19,13,02,10.00
2011,04,19,13,03,10.00
2011,04,19,13,04,10.00
2011,04,19,13,05,10.00
2011,04,19,13,06,10.00
2011,04,19,13,07,10.10
2011,04,19,13,08,10.20
2011,04,19,13,09,10.10
2011,04,19,13,10,10.10
2011,04,19,13,11,10.10
2011,04,19,13,12,10.10
2011,04,19,13,13,10.20
2011,04,19,13,14,10.30
2011,04,19,13,15,10.30
2011,04,19,13,16,10.30
2011,04,19,13,17,10.30
2011,04,19,13,18,10.30
2011,04,19,13,19,10.30
2011,04,19,13,20,10.30
2011,04,19,13,21,10.30
2011,04,19,13,22,10.30
2011,04,19,13,23,10.30
2011,04,19,13,24,10.30
2011,04,19,13,25,10.30
2011,04,19,13,26,10.30
2011,04,19,13,27,10.30
2011,04,19,13,28,10.30
2011,04,19,13,29,10.30
2011,04,19,13,30,10.30
2011,04,19,13,31,10.30
2011,04,19,13,32,10.30
2011,04,19,13,33,10.40
2011,04,19,13,34,10.40
2011,04,19,13,35,10.50
2011,04,19,13,36,10.50
2011,04,19,13,37,10.50
2011,04,19,13,38,10.50
2011,04,19,13,39,10.40
2011,04,19,13,40,10.30
2011,04,19,13,41,10.30
2011,04,19,13,42,10.20
2011,04,19,13,43,10.20
2011,04,19,13,44,10.20
2011,04,19,13,45,10.20
2011,04,19,13,46,10.40
2011,04,19,13,47,10.50
2011,04,19,13,48,10.60
2011,04,19,13,49,10.80
2011,04,19,13,50,10.90
2011,04,19,13,51,10.80
2011,04,19,13,52,10.70
2011,04,19,13,53,10.60
2011,04,19,13,54,10.60
2011,04,19,13,55,10.70
2011,04,19,13,56,10.60
2011,04,19,13,57,10.60
2011,04,19,13,58,10.70
2011,04,19,13,59,10.70
2011,04,19,14,00,10.80
2011,04,19,14,01,10.80
2011,04,19,14,02,10.70
2011,04,19,14,03,10.80
2011,04,19,14,04,10.90
2011,04,19,14,05,10.90
2011,04,19,14,06,10.80
2011,04,19,14,07,10.80
2011,04,19,14,08,10.80
2011,04,19,14,09,10.80
2011,04,19,14,10,10.70
2011,04,19,14,11,10.70
2011,04,19,14,12,10.70
2011,04,19,14,13,10.70
2011,04,19,14,14,10.70
2011,04,19,14,15,10.70
2011,04,19,14,16,10.70
2011,04,19,14,17,10.70
2011,04,19,14,18,10.70
2011,04,19,14,19,10.80
2011,04,19,14,20,10.90
2011,04,19,14,21,10.90
2011,04,19,14,22,11.10
2011,04,19,14,23,11.10
2011,04,19,14,24,11.10
2011,04,19,14,25,11.10
2011,04,19,14,26,11.10
2011,04,19,14,27,11.00
2011,04,19,14,28,11.00
2011,04,19,14,29,10.90
2011,04,19,14,30,10.90
2011,04,19,14,31,10.90
2011,04,19,14,32,10.90
2011,04,19,14,33,11.00
2011,04,19,14,34,11.00
2011,04,19,14,35,11.00
2011,04,19,14,36,11.00
2011,04,19,14,37,10.90
2011,04,19,14,38,10.90
2011,04,19,14,39,10.90
2011,04,19,14,40,10.90
2011,04,19,14,41,10.80
2011,04,19,14,42,10.90
2011,04,19,14,43,10.90
2011,04,19,14,44,10.90
2011,04,19,14,45,10.90
2011,04,19,14,46,10.90
2011,04,19,14,47,10.90
2011,04,19,14,48,10.90
2011,04,19,14,49,10.90
2011,04,19,14,50,10.90
2011,04,19,14,51,10.90
2011,04,19,14,52,11.00
2011,04,19,14,53,11.00
2011,04,19,14,54,11.00
2011,04,19,14,55,11.00
2011,04,19,14,56,10.90
2011,04,19,14,57,10.80
2011,04,19,14,58,10.80
2011,04,19,14,59,10.80
2011,04,19,15,00,10.80
2011,04,19,15,01,10.80
2011,04,19,15,02,10.80
2011,04,19,15,03,10.80
2011,04,19,15,04,10.80
2011,04,19,15,05,10.80
2011,04,19,15,06,10.80
2011,04,19,15,07,10.80
2011,04,19,15,08,10.70
2011,04,19,15,09,10.60
2011,04,19,15,10,10.70
2011,04,19,15,11,10.60
2011,04,19,15,12,10.60
2011,04,19,15,13,10.50
2011,04,19,15,14,10.50
2011,04,19,15,15,10.40
2011,04,19,15,16,10.40
2011,04,19,15,17,10.40
2011,04,19,15,18,10.40
2011,04,19,15,19,10.50
2011,04,19,15,20,10.60
2011,04,19,15,21,10.70
2011,04,19,15,22,10.60
2011,04,19,15,23,10.60
2011,04,19,15,24,10.60
2011,04,19,15,25,10.70
2011,04,19,15,26,10.80
2011,04,19,15,27,10.80
2011,04,19,15,28,10.80
2011,04,19,15,29,10.90
2011,04,19,15,30,10.90
2011,04,19,15,31,10.90
2011,04,19,15,32,10.80
2011,04,19,15,33,10.90
2011,04,19,15,34,10.90
2011,04,19,15,35,10.90
2011,04,19,15,36,10.90
2011,04,19,15,37,10.80
2011,04,19,15,38,10.80
2011,04,19,15,39,10.80
2011,04,19,15,40,10.80
2011,04,19,15,41,10.70
2011,04,19,15,42,10.70
2011,04,19,15,43,10.70
2011,04,19,15,44,10.70
2011,04,19,15,45,10.70
2011,04,19,15,46,10.70
2011,04,19,15,47,10.80
2011,04,19,15,48,10.80
2011,04,19,15,49,10.80
2011,04,19,15,50,10.80
2011,04,19,15,51,10.80
2011,04,19,15,52,10.80
2011,04,19,15,53,10.80
2011,04,19,15,54,10.70
2011,04,19,15,55,10.60
2011,04,19,15,56,10.60
2011,04,19,15,57,10.60
2011,04,19,15,58,10.60
2011,04,19,15,59,10.60
2011,04,19,16,00,10.50
2011,04,19,16,01,10.50
2011,04,19,16,02,10.50
2011,04,19,16,03,10.50
2011,04,19,16,04,10.50
2011,04,19,16,05,10.60
2011,04,19,16,06,10.60
2011,04,19,16,07,10.60
2011,04,19,16,08,10.70
2011,04,19,16,09,10.80
2011,04,19,16,10,10.80
2011,04,19,16,11,10.90
2011,04,19,16,12,10.90
2011,04,19,16,13,10.80
2011,04,19,16,14,10.80
2011,04,19,16,15,10.80
2011,04,19,16,16,10.90
2011,04,19,16,17,10.90
2011,04,19,16,18,11.00
2011,04,19,16,19,10.90
2011,04,19,16,20,10.90
2011,04,19,16,21,10.90
2011,04,19,16,22,10.90
2011,04,19,16,23,10.90
2011,04,19,16,24,10.90
2011,04,19,16,25,10.80
2011,04,19,16,26,10.70
2011,04,19,16,27,10.70
2011,04,19,16,28,10.70
2011,04,19,16,29,10.70
2011,04,19,16,30,10.70
2011,04,19,16,31,10.80
2011,04,19,16,32,10.80
2011,04,19,16,33,10.80
2011,04,19,16,34,10.80
2011,04,19,16,35,10.80
2011,04,19,16,36,10.90
2011,04,19,16,37,11.00
2011,04,19,16,38,11.00
2011,04,19,16,39,10.80
2011,04,19,16,40,10.70
2011,04,19,16,41,10.70
2011,04,19,16,42,10.70
2011,04,19,16,43,10.90
2011,04,19,16,44,11.00
2011,04,19,16,45,11.00
2011,04,19,16,46,11.10
2011,04,19,16,47,11.10
2011,04,19,16,48,11.10
2011,04,19,16,49,11.10
2011,04,19,16,50,11.00
2011,04,19,16,51,10.90
2011,04,19,16,52,10.90
2011,04,19,16,53,10.90
2011,04,19,16,54,11.00
2011,04,19,16,55,11.00
2011,04,19,16,56,11.00
2011,04,19,16,57,11.00
2011,04,19,16,58,11.00
2011,04,19,16,59,11.00
2011,04,19,17,00,11.00
2011,04,19,17,01,11.00
2011,04,19,17,02,11.10
2011,04,19,17,03,11.20
2011,04,19,17,04,11.40
2011,04,19,17,05,11.50
2011,04,19,17,06,11.60
2011,04,19,17,07,11.60
2011,04,19,17,08,11.60
2011,04,19,17,09,11.60
2011,04,19,17,10,11.50
2011,04,19,17,11,11.40
2011,04,19,17,12,11.30
2011,04,19,17,13,11.30
2011,04,19,17,14,11.40
2011,04,19,17,15,11.40
2011,04,19,17,16,11.40
2011,04,19,17,17,11.40
2011,04,19,17,18,11.30
2011,04,19,17,19,11.40
2011,04,19,17,20,11.40
2011,04,19,17,21,11.40
2011,04,19,17,22,11.40
2011,04,19,17,23,11.30
2011,04,19,17,24,11.30
2011,04,19,17,25,11.30
2011,04,19,17,26,11.40
2011,04,19,17,27,11.40
2011,04,19,17,28,11.40
2011,04,19,17,29,11.40
2011,04,19,17,30,11.40
2011,04,19,17,31,11.30
2011,04,19,17,32,11.30
2011,04,19,17,33,11.20
2011,04,19,17,34,11.20
2011,04,19,17,35,11.30
2011,04,19,17,36,11.30
2011,04,19,17,37,11.30
2011,04,19,17,38,11.30
2011,04,19,17,39,11.30
2011,04,19,17,40,11.30
2011,04,19,17,41,11.20
2011,04,19,17,42,11.20
2011,04,19,17,43,11.20
2011,04,19,17,44,11.20
2011,04,19,17,45,11.20
2011,04,19,17,46,11.20
2011,04,19,17,47,11.20
2011,04,19,17,48,11.10
2011,04,19,17,49,11.10
2011,04,19,17,50,11.00
2011,04,19,17,51,11.00